Weather History for Tupelo, MS

Change the Weather History Date:

Thursday, October 18, 2012

  Actual Average Record
Temperature  
Mean Temperature 62 °F 62 °F  
Max Temperature 73 °F 75 °F 90 °F (1938)
Min Temperature 50 °F 50 °F 28 °F (1978)
Degree Days  
Heating Degree Days 3 5  
Month to date heating degree days 57 54  
Since 1 July heating degree days 68 66  
Cooling Degree Days 0 2  
Month to date cooling degree days 34 57  
Year to date cooling degree days 2194 2015  
Growing Degree Days 12 (Base 50)    
Moisture  
Dew Point 49 °F    
Average Humidity 65    
Maximum Humidity 100    
Minimum Humidity 29    
Precipitation  
Precipitation 0.00 in 0.13 in 1.30 in (1981)
Month to date precipitation 3.03 2.41  
Year to date precipitation 41.49 42.32  
Snow  
Snow 0.00 in 0.00 in - ()
Month to date snowfall 0.0 0.0  
Since 1 July snowfall 0.0 0.0  
Since 1 September snowfall 0.0 0.0  
Snow Depth 0.00 in    
Sea Level Pressure  
Sea Level Pressure 29.79 in    
Wind  
Wind Speed 5 mph (West)    
Max Wind Speed 17 mph    
Max Gust Speed 23 mph    
Visibility 10 miles    
Events Rain    
T = Trace of Precipitation, MM = Missing Value Source: NWS Daily Summary

Daily Weather History Graph

Daily Weather History Graph

Search for Another Location

Airport:

Trip Planner

Search our weather history database for the weather conditions in past years. The results will help you decide how hot, cold, wet, or windy it might be!

Date:

Astronomy

Oct. 18, 2012 Rise Set
Actual Time 7:03 AM CDT 6:16 PM CDT
Civil Twilight 6:37 AM CDT 6:41 PM CDT
Nautical Twilight 6:08 AM CDT 7:11 PM CDT
Astronomical Twilight 5:39 AM CDT 7:40 PM CDT
Moon 10:35 AM CDT (10/18) 8:59 PM CDT (10/18)
Length of Visible Light 12h 03m
Length of Day
11h 13m
Waxing Crescent, 14% of the Moon is Illuminated
Oct 18
Waxing Crescent
Oct 21
First Quarter
Oct 29
Full
Nov 6
Last Quarter
Nov 13
New

Hourly Weather History & Observations

Time (CDT) Temp. Dew Point Humidity Pressure Visibility Wind Dir Wind Speed Gust Speed Precip Events Conditions
12:38 AM 64.4 °F 62.6 °F 94% 29.71 in 10.0 mi Variable 4.6 mph - 0.03 in   Overcast
12:53 AM 64.0 °F 63.0 °F 96% 29.70 in 10.0 mi North 9.2 mph - 0.04 in Rain Rain
1:53 AM 63.0 °F 60.1 °F 90% 29.72 in 10.0 mi North 5.8 mph - 0.01 in   Unknown
2:53 AM 61.0 °F 57.9 °F 90% 29.70 in 10.0 mi North 4.6 mph - N/A   Clear
3:53 AM 59.0 °F 55.9 °F 90% 29.75 in 10.0 mi NNW 3.5 mph - N/A   Clear
4:53 AM 55.9 °F 54.0 °F 93% 29.78 in 9.0 mi Calm Calm - N/A   Clear
5:10 AM 55.4 °F 53.6 °F 94% 29.79 in 2.0 mi Calm Calm - N/A   Clear
5:22 AM 55.4 °F 53.6 °F 94% 29.79 in 9.0 mi Calm Calm - N/A   Clear
5:53 AM 54.0 °F 53.1 °F 97% 29.80 in 10.0 mi WNW 3.5 mph - N/A   Clear
6:53 AM 53.1 °F 52.0 °F 96% 29.81 in 10.0 mi Calm Calm - N/A   Clear
7:53 AM 55.0 °F 54.0 °F 96% 29.81 in 10.0 mi Calm Calm - N/A   Clear
8:53 AM 60.1 °F 55.9 °F 86% 29.83 in 10.0 mi West 4.6 mph - N/A   Clear
9:53 AM 64.0 °F 54.0 °F 70% 29.85 in 10.0 mi Variable 4.6 mph - N/A   Clear
10:53 AM 66.0 °F 51.1 °F 59% 29.84 in 10.0 mi West 6.9 mph - N/A   Clear
11:53 AM 66.9 °F 46.9 °F 49% 29.86 in 10.0 mi West 8.1 mph - N/A   Clear
12:53 PM 70.0 °F 45.0 °F 41% 29.84 in 10.0 mi West 8.1 mph - N/A   Scattered Clouds
1:53 PM 71.1 °F 43.0 °F 36% 29.82 in 10.0 mi WSW 9.2 mph 17.3 mph N/A   Clear
2:53 PM 71.1 °F 39.9 °F 32% 29.80 in 10.0 mi West 9.2 mph 19.6 mph N/A   Clear
3:53 PM 72.0 °F 39.0 °F 30% 29.78 in 10.0 mi WSW 8.1 mph 20.7 mph N/A   Clear
4:53 PM 71.1 °F 37.9 °F 30% 29.78 in 10.0 mi West 10.4 mph 19.6 mph N/A   Clear
5:53 PM 66.9 °F 39.9 °F 37% 29.79 in 10.0 mi West 10.4 mph - N/A   Clear
6:53 PM 62.1 °F 42.1 °F 48% 29.80 in 10.0 mi WSW 4.6 mph - N/A   Clear
7:53 PM 60.1 °F 42.1 °F 51% 29.81 in 10.0 mi WSW 4.6 mph - N/A   Clear
8:53 PM 59.0 °F 42.1 °F 53% 29.83 in 10.0 mi WSW 6.9 mph - N/A   Clear
9:53 PM 57.0 °F 42.1 °F 57% 29.84 in 10.0 mi West 4.6 mph - N/A   Clear
10:53 PM 52.0 °F 43.0 °F 71% 29.84 in 10.0 mi Calm Calm - N/A   Clear
11:53 PM 51.1 °F 43.0 °F 74% 29.83 in 10.0 mi Calm Calm - N/A   Clear